Hourly Data Report for October 15, 2015

All times are specified in Local Standard Time (LST). Add 1 hour to adjust for Daylight Saving Time where and when it is observed.

ARVIAT A
NUNAVUT

61°05'38.000" N
94°04'18.000" W
10.40 m
2300427
71174
YEK

Download Data

Hourly Data (October 2015)
Hourly Data Report for October 15, 2015
Temp Definition
°C
Dew Point Temp Definition
°C
Rel Hum Definition
%
Wind Dir Definition
10's deg

Wind Spd Definition
km/h
Visibility Definition
km
Stn Press Definition
kPa
Hmdx Definition


Wind Chill Definition


Weather Definition


TIME
00:00 Legend Double Dagger -7.7 -9.8 85 36 41 9.7 101.41   -18 Snow
01:00 Legend Double Dagger -8.0 -10.5 82 1 39 16.1 101.47   -18 Snow
02:00 Legend Double Dagger -7.8 -10.4 82 36 32 16.1 101.52   -17 Snow
03:00 Legend Double Dagger -7.3 -9.7 83 35 34 16.1 101.56   -16 Snow
04:00 Legend Double Dagger -7.6 -11.0 77 35 41 16.1 101.62   -18 Snow
05:00 Legend Double Dagger -8.0 -11.0 79 34 43 16.1 101.69   -18 Snow
06:00 Legend Double Dagger -8.4 -9.6 91 34 39 6.4 101.76   -19 Snow
07:00 Legend Double Dagger -8.6 -11.3 81 35 34 16.1 101.83   -18 Snow
08:00 Legend Double Dagger -9.1 -10.9 87 33 37 8.1 101.86   -19 Snow
09:00 Legend Double Dagger -9.1 -11.5 83 33 37 16.1 101.90   -19 Snow
10:00 Legend Double Dagger -9.3 -11.6 83 34 37 16.1 101.97   -19 Snow
11:00 Legend Double Dagger -9.1 -11.1 86 33 32 12.9 102.03   -19 Snow
12:00 Legend Double Dagger -8.7 -10.8 85 32 35 16.1 102.05   -18 Snow
13:00 Legend Double Dagger -9.0 -11.2 84 32 32 16.1 102.08   -18 Snow
14:00 Legend Double Dagger -9.3 -11.6 83 32 32 16.1 102.12   -19 Snow
15:00 Legend Double Dagger -9.3 -11.2 87 31 26 16.1 102.14   -18 Snow
16:00 Legend Double Dagger -9.5 -11.6 85 29 21 16.1 102.15   -17 LegendNANA
17:00 Legend Double Dagger -9.9 -11.7 87 30 18 16.1 102.15   -17 LegendNANA
18:00 Legend Double Dagger -10.3 -12.1 87 29 21 16.1 102.16   -18 LegendNANA
19:00 Legend Double Dagger -11.4 -13.0 88 28 24 16.1 102.20   -20 LegendNANA
20:00 Legend Double Dagger -12.2 -13.3 92 27 15 16.1 102.21   -19 LegendNANA
21:00 Legend Double Dagger -12.4 -13.9 89 28 18 16.1 102.18   -20 LegendNANA
22:00 Legend Double Dagger -11.6 -13.4 87 29 24 16.1 102.16   -21 LegendNANA
23:00 Legend Double Dagger -11.7 -13.3 88 29 22 16.1 102.13   -20 LegendNANA

Notes on Data Quality.

Legend

  • E = Estimated
  • M = Missing
  • NA = Not Available
  • ‡ = Partner data that is not subject to review by the National Climate Archives
Date modified: